Location: Bullenkuhlen
(53.7689°N, 9.7495°E)
Time: 11:04:19
(UTC+00:00)

Cosmos 1408 Rocket - Pass Details

Date: 09 April 2020
Orbit: 600 x 632 km, 82.6° (Epoch: 25 May)

Event Time Altitude Azimuth Distance (km) Brightness Sun altitude
Rises 21:24:18 0° 346° (NNW) 2,936 8.3 -23.4°
Reaches altitude 10° 21:26:35 10° 343° (NNW) 2,020 7.2 -23.6°
Maximum altitude 21:31:00 61° 264° (W) 712 3.8 -23.9°
Enters shadow 21:31:24 58° 235° (SW) 733 3.8 -23.9°
